Location: Mentone
(34.5413°N, 85.5351°W)
Time: 18:09:27
(UTC-06:00)

Transit 2A Rocket - Visible Passes

Search period start: 18 January 2017 00:00
Search period end: 28 January 2017 00:00
Orbit: 593 x 911 km, 66.7° (Epoch: 18 January)

Date Brightness Start Highest point End Pass type
(mag) Time Alt. Az. Time Alt. Az. Time Alt. Az.
18 Jan 6.1 17:39:04 10° NNE 17:41:36 15° NE 17:43:20 12° ENE visible
18 Jan 5.8 19:20:16 10° NW 19:23:23 37° WNW 19:23:23 37° WNW visible
19 Jan 4.3 18:37:45 10° NNW 18:42:04 88° ENE 18:44:41 23° SSE visible
20 Jan 4.8 17:55:35 10° NNW 17:59:41 42° ENE 18:03:49 10° SE visible
20 Jan 7.6 19:39:46 10° WNW 19:41:48 13° WSW 19:43:49 10° SW visible
21 Jan 6.6 18:56:03 10° NW 18:59:39 26° WSW 19:03:19 10° SSW visible
22 Jan 5.2 18:13:14 10° NW 18:17:27 55° WSW 18:21:42 10° S visible
23 Jan 4.4 17:30:51 10° NNW 17:35:08 70° ENE 17:39:29 10° SSE visible
24 Jan 7.6 18:32:12 10° WNW 18:34:56 17° WSW 18:37:43 10° SSW visible
25 Jan 6.5 17:48:55 10° NW 17:52:47 33° WSW 17:56:43 10° S visible
27 Jan 8.2 05:56:04 10° SSE 05:59:49 19° ESE 06:03:24 10° ENE visible
